Location: Hurecourt
(47.9030°N, 6.0653°E)
Time: 21:06:21
(UTC+00:00)

Cosmos 2278 - Pass Details

Date: 14 July 2020
Orbit: 838 x 854 km, 71.1° (Epoch: 14 August)

Event Time Altitude Azimuth Distance (km) Brightness Sun altitude
Rises 01:59:29 0° 332° (NNW) 3,434 7.3 -13.9°
Reaches altitude 10° 02:01:57 10° 332° (NNW) 2,495 6.5 -13.7°
Maximum altitude 02:07:41 87° 246° (WSW) 862 3.7 -13.2°
Drops below altitude 10° 02:13:24 10° 156° (SSE) 2,477 5.8 -12.6°
Sets 02:15:50 0° 156° (SSE) 3,408 6.6 -12.4°
